Caumont Avignon, France

2:49 AM CEST on May 23, 2017 (GMT +0200)
Caumont

Weather History for LFMV - September, 2013

Change the Weather History Date:

Thursday, September 26, 2013

  Actual Average Record
Temperature  
Mean Temperature 70 °F -  
Max Temperature 78 °F - - ()
Min Temperature 62 °F - - ()
Cooling Degree Days 5    
Growing Degree Days 20 (Base 50)    
Moisture  
Dew Point 64 °F    
Average Humidity 80    
Maximum Humidity 94    
Minimum Humidity 54    
Precipitation  
Precipitation 0.00 in - - ()
Sea Level Pressure  
Sea Level Pressure 29.99 in    
Wind  
Wind Speed 3 mph ()    
Max Wind Speed 9 mph    
Max Gust Speed -    
Visibility 6.1 miles    
Events      
T = Trace of Precipitation, MM = Missing Value Source: Averaged Metar Reports

Daily Weather History Graph

Daily Weather History Graph

Search for Another Location

Airport or City:

Trip Planner

Search our weather history database for the weather conditions in past years. The results will help you decide how hot, cold, wet, or windy it might be!

Date:

Astronomy

Sep. 26, 2013 Rise Set
Actual Time 7:32 AM CEST 7:30 PM CEST
Civil Twilight 7:03 AM CEST 7:59 PM CEST
Nautical Twilight 6:29 AM CEST 8:32 PM CEST
Astronomical Twilight 5:55 AM CEST 9:06 PM CEST
Moon No Moon Rise 2:22 PM CEST (9/26)
Length of Visible Light 12h 55m
Length of Day
11h 58m
Waning Gibbous, 57% of the Moon is Illuminated
Sep 26
Waning Gibbous
Sep 27
Last Quarter
Oct 5
New
Oct 12
First Quarter
Oct 19
Full

Hourly Weather History & Observations

Time (CEST) Temp. Dew Point Humidity Pressure Visibility Wind Dir Wind Speed Gust Speed Precip Events Conditions
12:00 AM 64.4 °F 62.6 °F 94% 29.98 in 5.6 mi Calm Calm - N/A   Overcast
12:30 AM 66.2 °F 64.4 °F 94% 29.98 in 6.2 mi SSE 4.6 mph - N/A   Overcast
1:00 AM 66.2 °F 64.4 °F 94% 29.98 in 5.6 mi South 2.3 mph - N/A   Overcast
1:30 AM 66.2 °F 64.4 °F 94% 29.98 in 5.6 mi SE 4.6 mph - N/A   Mostly Cloudy
2:00 AM 66.2 °F 64.4 °F 94% 29.98 in 6.2 mi SSE 3.5 mph - N/A   Overcast
2:30 AM 66.2 °F 64.4 °F 94% 30.01 in 6.2 mi Calm Calm - N/A   Overcast
3:00 AM 66.2 °F 64.4 °F 94% 29.98 in 6.2 mi Calm Calm - N/A   Overcast
3:30 AM 66.2 °F 64.4 °F 94% 29.98 in 6.2 mi Variable 2.3 mph - N/A   Overcast
4:00 AM 66.2 °F 64.4 °F 94% 29.98 in 6.2 mi Variable 2.3 mph - N/A   Overcast
4:30 AM 66.2 °F 64.4 °F 94% 29.98 in 5.6 mi Calm Calm - N/A   Overcast
5:00 AM 66.2 °F 64.4 °F 94% 29.98 in 6.2 mi Calm Calm - N/A   Overcast
5:30 AM 66.2 °F 62.6 °F 88% 29.98 in 6.2 mi Variable 2.3 mph - N/A   Scattered Clouds
6:00 AM 64.4 °F 60.8 °F 88% 29.98 in 6.2 mi South 3.5 mph - N/A   Partly Cloudy
6:30 AM 62.6 °F 60.8 °F 94% 29.98 in 5.6 mi Variable 2.3 mph - N/A   Mostly Cloudy
7:00 AM 64.4 °F 62.6 °F 94% 29.98 in 4.3 mi Variable 2.3 mph - N/A   Overcast
7:30 AM 64.4 °F 62.6 °F 94% 30.01 in 6.2 mi Calm Calm - N/A   Overcast
8:00 AM 64.4 °F 62.6 °F 94% 30.01 in 6.2 mi Calm Calm - N/A   Overcast
8:30 AM 66.2 °F 64.4 °F 94% 30.01 in 6.2 mi Variable 2.3 mph - N/A   Overcast
9:00 AM 66.2 °F 64.4 °F 94% 30.01 in 6.2 mi Variable 1.2 mph - N/A   Overcast
9:30 AM 68.0 °F 64.4 °F 88% 30.01 in 6.2 mi Variable 2.3 mph - N/A   Overcast
10:00 AM 69.8 °F 62.6 °F 78% 30.04 in 6.2 mi Variable 2.3 mph - N/A   Overcast
10:30 AM 71.6 °F 64.4 °F 78% 30.04 in 6.2 mi East 3.5 mph - N/A   Overcast
11:00 AM 73.4 °F 64.4 °F 73% 30.04 in 6.2 mi Variable 3.5 mph - N/A   Overcast
11:30 AM 73.4 °F 64.4 °F 73% 30.04 in 6.2 mi Variable 2.3 mph - N/A   Overcast
12:00 PM 75.2 °F 66.2 °F 73% 30.04 in 6.2 mi Variable 2.3 mph - N/A   Overcast
12:30 PM 75.2 °F 64.4 °F 69% 30.01 in 6.2 mi Variable 2.3 mph - N/A   Mostly Cloudy
1:00 PM 77.0 °F 62.6 °F 61% 30.01 in 6.2 mi Variable 2.3 mph - N/A   Partly Cloudy
1:30 PM 78.8 °F 64.4 °F 61% 30.01 in 6.2 mi South 3.5 mph - N/A   Scattered Clouds
2:00 PM 78.8 °F 60.8 °F 54% 30.01 in 6.2 mi WNW 4.6 mph - N/A   Partly Cloudy
2:30 PM 78.8 °F 62.6 °F 57% 30.01 in 6.2 mi WSW 5.8 mph - N/A   Partly Cloudy
3:00 PM 78.8 °F 64.4 °F 61% 29.98 in 6.2 mi West 6.9 mph - N/A   Scattered Clouds
3:30 PM 78.8 °F 66.2 °F 65% 29.98 in 6.2 mi WSW 9.2 mph - N/A   Mostly Cloudy
4:00 PM 78.8 °F 64.4 °F 61% 29.98 in 6.2 mi SW 9.2 mph - N/A   Mostly Cloudy
4:30 PM 77.0 °F 64.4 °F 65% 29.98 in 6.2 mi WSW 9.2 mph - N/A   Partly Cloudy
5:00 PM 78.8 °F 64.4 °F 61% 29.98 in 6.2 mi SW 8.1 mph - N/A   Partly Cloudy
5:30 PM 77.0 °F 64.4 °F 65% 29.95 in 6.2 mi WSW 8.1 mph - N/A   Mostly Cloudy
6:00 PM 77.0 °F 64.4 °F 65% 29.95 in 6.2 mi WSW 8.1 mph - N/A   Scattered Clouds
6:30 PM 75.2 °F 64.4 °F 69% 29.95 in 6.2 mi WSW 8.1 mph - N/A   Unknown
7:00 PM 73.4 °F 64.4 °F 73% 29.95 in 6.2 mi WSW 4.6 mph - N/A   Partly Cloudy
7:30 PM 71.6 °F 64.4 °F 78% 29.95 in 6.2 mi WSW 3.5 mph - N/A   Unknown
8:00 PM 71.6 °F 62.6 °F 73% 29.95 in 6.2 mi WSW 3.5 mph - N/A   Partly Cloudy
8:30 PM 69.8 °F 62.6 °F 78% 29.98 in 6.2 mi WSW 2.3 mph - N/A   Unknown
9:00 PM 68.0 °F 60.8 °F 78% 29.98 in 6.2 mi SSW 2.3 mph - N/A   Unknown
9:30 PM 66.2 °F 62.6 °F 88% 29.98 in 6.2 mi South 3.5 mph - N/A   Mostly Cloudy
10:00 PM 68.0 °F 62.6 °F 83% 29.98 in 6.2 mi Variable 1.2 mph - N/A   Overcast
10:30 PM 66.2 °F 62.6 °F 88% 29.98 in 6.2 mi SSE 2.3 mph - N/A   Overcast
11:00 PM 68.0 °F 62.6 °F 83% 29.98 in 6.2 mi Variable 3.5 mph - N/A   Overcast
11:30 PM 68.0 °F 62.6 °F 83% 29.98 in 6.2 mi Calm Calm - N/A   Overcast